Flag for U.S.A. Weather past 2 weeks in Des Moines, Iowa, U.S.A.

Now
13 °F

Passing clouds.


Feels Like: 7 °F
Forecast: -6 / 13 °F
Wind: 3 mph from Southwest

Location: Des Moines International Airport

Current Time: Feb 27, 2015 at 5:07:59 PM

Latest Report: Feb 27, 2015 at 3:54 PM


Visibility: 10 mi

Pressure: 30.65 "Hg

Humidity: 49%

Dew point: -3 °F

Location of Des MoinesLocation

Historic Weather in Des Moines — Graph

°F

Des Moines temperature yesterday

Maximum temperature yesterday: 10 °F (at 12:54 AM)
Minimum temperature yesterday: -1 °F (at 11:54 PM)
Average temperature yesterday: 6 °F

Past Weeks' High & Low Weather Summary

 TemperatureHumidityPressure
High39 °F (Feb 20, 3:54 PM)82% (Feb 25, 4:54 PM)30.87 "Hg (Feb 25, 4:54 PM)
Low-7 °F (Feb 27, 6:54 AM)35% (Feb 23, 1:54 PM)29.81 "Hg (Feb 25, 12:54 PM)
Average16 °F58%30.29 "Hg
* Reported Feb 12 3:54 PM — Feb 27 3:54 PM, Des Moines, Weather by CustomWeather, © 2015

Note: Actual official high and low records may vary slightly from our data, if they occured in-between our weather recording intervals... More about our weather records

Advertising

Des Moines weather history for previous 24 hours

 ConditionsComfort  
Time TempWeatherWind HumidityBarometerVisibility
3:54 PM
Fri, Feb 27
13 °FPassing clouds.3 mph49%30.65 "Hg10 mi
2:54 PM12 °FPassing clouds.5 mph56%30.66 "Hg10 mi
1:54 PM12 °FPassing clouds.5 mph53%30.67 "Hg10 mi
12:54 PM13 °FPassing clouds.5 mph51%30.68 "Hg10 mi
11:54 AM8 °FPassing clouds.5 mph57%30.71 "Hg10 mi
10:54 AM7 °FPassing clouds.6 mph60%30.71 "Hg10 mi
9:54 AM4 °FPassing clouds.5 mph63%30.71 "Hg10 mi
8:54 AM0 °FPassing clouds.5 mph68%30.72 "Hg10 mi
7:54 AM-4 °FSunny.3 mph71%30.69 "Hg10 mi
6:54 AM-7 °FSunny.5 mph75%30.67 "Hg10 mi
5:54 AM-6 °FClear.5 mph75%30.67 "Hg10 mi
4:54 AM-6 °FClear.3 mph75%30.65 "Hg10 mi
3:54 AM-5 °FClear.3 mph75%30.65 "Hg10 mi
2:54 AM-5 °FClear.6 mph75%30.65 "Hg10 mi
1:54 AM-4 °FClear.6 mphN/A30.65 "Hg10 mi
12:54 AM-2 °FClear.6 mph75%30.63 "Hg10 mi
11:54 PM
Thu, Feb 26
-1 °FClear.5 mph71%30.63 "Hg10 mi
10:54 PM0 °FClear.6 mph71%30.63 "Hg10 mi
9:54 PM2 °FClear.5 mph69%30.63 "Hg10 mi
8:54 PM3 °FClear.6 mph66%30.61 "Hg10 mi
7:54 PM4 °FClear.9 mph63%30.60 "Hg10 mi
6:54 PM6 °FPassing clouds.13 mph60%30.58 "Hg10 mi
5:54 PM7 °FPassing clouds.14 mph55%30.56 "Hg10 mi
Weather by CustomWeather, © 2015

See weather overviewHow to use our weather pages